St. Paul Lake Elmo, MN

5:50 PM CST on November 18, 2019 (GMT -0600)
St. Paul Lake Elmo

Weather History for K21D - September, 2019

Change the Weather History Date:

Sunday, September 8, 2019

  Actual Average (WUND) Record (WUND)
Temperature  
Mean Temperature 56 °F -  
Max Temperature 60 °F - - (-1)
Min Temperature 51 °F - - (-1)
Degree Days  
Heating Degree Days 10    
Growing Degree Days 6 (Base 50)    
Moisture  
Dew Point 52 °F    
Average Humidity 88    
Maximum Humidity 100    
Minimum Humidity 77    
Precipitation  
Precipitation 0.11 in - - ()
Sea Level Pressure  
Sea Level Pressure 30.14 in    
Wind  
Wind Speed 5 mph (WSW)    
Max Wind Speed 10 mph    
Max Gust Speed -    
Visibility 10 miles    
Events Rain    
Averages and records for this station are not official NWS values.
T = Trace of Precipitation, MM = Missing Value Source: NWS Daily Summary

Daily Weather History Graph

Daily Weather History Graph

Search for Another Location

Airport or City:

Astronomy

Sep. 08, 2019 Rise Set
Actual Time 6:41 AM CDT 7:35 PM CDT
Civil Twilight 6:11 AM CDT 8:05 PM CDT
Nautical Twilight 5:36 AM CDT 8:41 PM CDT
Astronomical Twilight 4:58 AM CDT 9:18 PM CDT
Moon 4:58 PM CDT (9/8) 1:08 AM CDT (9/8)
Length of Visible Light 13h 53m
Length of Day
12h 54m
Waxing Gibbous, 75% of the Moon is Illuminated
Sep 8
Waxing Gibbous
Sep 13
Full
Sep 21
Last Quarter
Sep 28
New
Oct 5
First Quarter

Hourly Weather History & Observations

Time (CDT) Temp. Dew Point Humidity Pressure Visibility Wind Dir Wind Speed Gust Speed Precip Events Conditions
12:16 AM 53.6 °F 51.8 °F 94% 30.12 in 10.0 mi WSW 5.8 mph - N/A   Overcast
12:35 AM 53.6 °F 51.8 °F 94% 30.12 in 10.0 mi WSW 6.9 mph - N/A   Overcast
12:36 AM 53.6 °F 51.8 °F 94% 30.12 in 10.0 mi WSW 5.8 mph - N/A   Overcast
12:55 AM 53.6 °F 51.8 °F 94% 30.12 in 10.0 mi WSW 4.6 mph - N/A   Overcast
12:56 AM 53.6 °F 51.8 °F 94% 30.12 in 10.0 mi WSW 4.6 mph - N/A   Overcast
1:15 AM 53.6 °F 51.8 °F 94% 30.11 in 10.0 mi WSW 5.8 mph - N/A   Overcast
1:19 AM 53.6 °F 51.8 °F 94% 30.12 in 10.0 mi WSW 5.8 mph - N/A   Overcast
1:38 AM 53.6 °F 51.8 °F 94% 30.13 in 10.0 mi WSW 6.9 mph - N/A Rain Light Rain
1:55 AM 53.6 °F 51.8 °F 94% 30.14 in 10.0 mi WSW 4.6 mph - 0.01 in Rain Light Rain
2:15 AM 53.6 °F 51.8 °F 94% 30.15 in 10.0 mi Calm Calm - N/A Rain Rain
2:16 AM 53.6 °F 51.8 °F 94% 30.15 in 10.0 mi Calm Calm - N/A Rain Rain
2:35 AM 53.6 °F 51.8 °F 94% 30.15 in 10.0 mi Calm Calm - 0.01 in Rain Rain
2:36 AM 53.6 °F 51.8 °F 94% 30.15 in 10.0 mi Calm Calm - 0.01 in Rain Light Rain
2:58 AM 53.6 °F 51.8 °F 94% 30.13 in 10.0 mi Calm Calm - 0.01 in   Drizzle
3:17 AM 53.6 °F 51.8 °F 94% 30.12 in 10.0 mi WSW 3.5 mph - N/A   Light Drizzle
3:35 AM 53.6 °F 51.8 °F 94% 30.13 in 10.0 mi Calm Calm - N/A   Mostly Cloudy
3:36 AM 53.6 °F 51.8 °F 94% 30.13 in 10.0 mi Calm Calm - N/A   Mostly Cloudy
3:55 AM 53.6 °F 51.8 °F 94% 30.13 in 10.0 mi Calm Calm - N/A   Overcast
4:18 AM 51.8 °F 51.8 °F 100% 30.12 in 10.0 mi WSW 4.6 mph - N/A   Overcast
4:37 AM 51.8 °F 51.8 °F 100% 30.12 in 10.0 mi WSW 4.6 mph - N/A   Overcast
4:56 AM 51.8 °F 50.0 °F 94% 30.12 in 10.0 mi WSW 4.6 mph - N/A   Overcast
5:15 AM 51.8 °F 50.0 °F 94% 30.13 in 10.0 mi WSW 4.6 mph - N/A   Overcast
5:16 AM 51.8 °F 50.0 °F 94% 30.13 in 10.0 mi WSW 4.6 mph - N/A   Overcast
5:35 AM 51.8 °F 50.0 °F 94% 30.12 in 10.0 mi WSW 5.8 mph - N/A   Overcast
5:39 AM 51.8 °F 50.0 °F 94% 30.12 in 10.0 mi WSW 6.9 mph - N/A   Overcast
5:58 AM 51.8 °F 50.0 °F 94% 30.13 in 10.0 mi WSW 5.8 mph - N/A   Overcast
6:16 AM 51.8 °F 50.0 °F 94% 30.13 in 10.0 mi WSW 6.9 mph - N/A   Overcast
6:35 AM 51.8 °F 50.0 °F 94% 30.13 in 10.0 mi WSW 6.9 mph - N/A   Overcast
6:36 AM 51.8 °F 50.0 °F 94% 30.13 in 10.0 mi WSW 6.9 mph - N/A   Overcast
6:55 AM 51.8 °F 50.0 °F 94% 30.14 in 10.0 mi WSW 5.8 mph - N/A   Overcast
6:56 AM 51.8 °F 50.0 °F 94% 30.14 in 10.0 mi WSW 5.8 mph - N/A   Overcast
7:18 AM 51.8 °F 50.0 °F 94% 30.14 in 10.0 mi WSW 4.6 mph - N/A   Overcast
7:36 AM 51.8 °F 50.0 °F 94% 30.15 in 10.0 mi WSW 6.9 mph - N/A   Overcast
7:55 AM 53.6 °F 50.0 °F 88% 30.15 in 10.0 mi WSW 6.9 mph - N/A   Overcast
7:56 AM 53.6 °F 50.0 °F 88% 30.15 in 10.0 mi WSW 5.8 mph - N/A   Overcast
8:15 AM 53.6 °F 50.0 °F 88% 30.14 in 10.0 mi WSW 8.1 mph - N/A   Overcast
8:16 AM 53.6 °F 50.0 °F 88% 30.14 in 10.0 mi WSW 8.1 mph - N/A   Overcast
8:38 AM 53.6 °F 50.0 °F 88% 30.15 in 10.0 mi WSW 6.9 mph - N/A   Overcast
8:56 AM 53.6 °F 50.0 °F 88% 30.15 in 10.0 mi WSW 5.8 mph - N/A   Overcast
9:16 AM 53.6 °F 50.0 °F 88% 30.16 in 10.0 mi WSW 4.6 mph - N/A   Overcast
9:35 AM 53.6 °F 50.0 °F 88% 30.16 in 10.0 mi WSW 4.6 mph - N/A   Overcast
9:36 AM 53.6 °F 50.0 °F 88% 30.16 in 10.0 mi WSW 3.5 mph - N/A   Overcast
9:55 AM 53.6 °F 50.0 °F 88% 30.16 in 10.0 mi WSW 4.6 mph - N/A   Overcast
9:59 AM 53.6 °F 51.8 °F 94% 30.16 in 10.0 mi WSW 5.8 mph - N/A   Overcast
10:16 AM 55.4 °F 51.8 °F 88% 30.16 in 10.0 mi WSW 6.9 mph - N/A   Light Drizzle
10:36 AM 55.4 °F 51.8 °F 88% 30.16 in 10.0 mi WSW 5.8 mph - N/A   Drizzle
10:55 AM 55.4 °F 51.8 °F 88% 30.16 in 10.0 mi WSW 5.8 mph - N/A   Drizzle
11:15 AM 55.4 °F 51.8 °F 88% 30.17 in 10.0 mi WSW 3.5 mph - 0.01 in   Drizzle
11:19 AM 55.4 °F 51.8 °F 88% 30.17 in 10.0 mi WSW 3.5 mph - 0.01 in   Drizzle
11:37 AM 55.4 °F 53.6 °F 94% 30.16 in 7.0 mi WSW 3.5 mph - 0.02 in Rain Light Rain
11:55 AM 55.4 °F 53.6 °F 94% 30.16 in 10.0 mi WSW 3.5 mph - 0.04 in Rain Rain
12:15 PM 55.4 °F 53.6 °F 94% 30.17 in 10.0 mi WSW 3.5 mph - 0.01 in Rain Rain
12:35 PM 55.4 °F 53.6 °F 94% 30.16 in 10.0 mi WSW 5.8 mph - 0.03 in Rain Light Rain
12:36 PM 55.4 °F 53.6 °F 94% 30.16 in 10.0 mi WSW 6.9 mph - 0.03 in Rain Light Rain
12:58 PM 55.4 °F 55.4 °F 100% 30.16 in 10.0 mi WSW 9.2 mph - 0.05 in Rain Rain
1:16 PM 55.4 °F 55.4 °F 100% 30.16 in 10.0 mi WSW 5.8 mph - N/A   Light Drizzle
1:35 PM 57.2 °F 55.4 °F 94% 30.16 in 10.0 mi WSW 6.9 mph - N/A   Light Drizzle
1:36 PM 57.2 °F 55.4 °F 94% 30.16 in 10.0 mi WSW 6.9 mph - N/A   Light Drizzle
1:55 PM 57.2 °F 53.6 °F 88% 30.16 in 10.0 mi WSW 8.1 mph - N/A   Overcast
1:56 PM 57.2 °F 55.4 °F 94% 30.16 in 10.0 mi WSW 8.1 mph - N/A   Overcast
2:15 PM 59.0 °F 53.6 °F 82% 30.16 in 10.0 mi WSW 8.1 mph - N/A   Overcast
2:19 PM 59.0 °F 53.6 °F 82% 30.16 in 10.0 mi WSW 10.4 mph - N/A   Overcast
2:38 PM 59.0 °F 53.6 °F 82% 30.15 in 10.0 mi WSW 8.1 mph - N/A   Overcast
2:55 PM 59.0 °F 53.6 °F 82% 30.15 in 10.0 mi WSW 10.4 mph - N/A   Mostly Cloudy
3:15 PM 60.8 °F 55.4 °F 82% 30.14 in 10.0 mi WSW 9.2 mph - N/A   Scattered Clouds
3:16 PM 60.8 °F 55.4 °F 82% 30.14 in 10.0 mi WSW 9.2 mph - N/A   Scattered Clouds
3:35 PM 60.8 °F 53.6 °F 77% 30.14 in 10.0 mi WSW 9.2 mph - N/A   Mostly Cloudy
3:36 PM 60.8 °F 53.6 °F 77% 30.14 in 10.0 mi WSW 9.2 mph - N/A   Mostly Cloudy
3:58 PM 60.8 °F 55.4 °F 82% 30.14 in 10.0 mi WSW 8.1 mph - N/A   Overcast
4:17 PM 60.8 °F 53.6 °F 77% 30.14 in 10.0 mi WSW 8.1 mph - N/A   Overcast
4:36 PM 60.8 °F 53.6 °F 77% 30.13 in 10.0 mi WSW 6.9 mph - N/A   Overcast
4:55 PM 60.8 °F 53.6 °F 77% 30.13 in 10.0 mi WSW 8.1 mph - N/A   Overcast
5:15 PM 60.8 °F 53.6 °F 77% 30.13 in 10.0 mi WSW 8.1 mph - N/A   Overcast
5:20 PM 60.8 °F 53.6 °F 77% 30.13 in 10.0 mi WSW 5.8 mph - N/A   Overcast
5:38 PM 60.8 °F 53.6 °F 77% 30.14 in 10.0 mi WSW 8.1 mph - N/A   Overcast
5:55 PM 59.0 °F 53.6 °F 82% 30.14 in 10.0 mi WSW 8.1 mph - N/A   Overcast
6:15 PM 59.0 °F 53.6 °F 82% 30.15 in 10.0 mi WSW 6.9 mph - N/A   Overcast
6:16 PM 59.0 °F 53.6 °F 82% 30.15 in 10.0 mi WSW 6.9 mph - N/A   Overcast
6:35 PM 59.0 °F 53.6 °F 82% 30.15 in 10.0 mi WSW 4.6 mph - N/A   Overcast
6:36 PM 59.0 °F 53.6 °F 82% 30.15 in 10.0 mi WSW 5.8 mph - N/A   Overcast
6:59 PM 59.0 °F 53.6 °F 82% 30.15 in 10.0 mi WSW 4.6 mph - N/A   Overcast
7:16 PM 59.0 °F 53.6 °F 82% 30.14 in 10.0 mi WSW 6.9 mph - N/A   Overcast
7:35 PM 59.0 °F 53.6 °F 82% 30.15 in 10.0 mi WSW 6.9 mph - N/A   Overcast
7:36 PM 59.0 °F 53.6 °F 82% 30.15 in 10.0 mi WSW 5.8 mph - N/A   Overcast
7:55 PM 59.0 °F 53.6 °F 82% 30.15 in 10.0 mi WSW 5.8 mph - N/A   Overcast
8:15 PM 59.0 °F 53.6 °F 82% 30.16 in 10.0 mi WSW 6.9 mph - N/A   Overcast
8:19 PM 59.0 °F 53.6 °F 82% 30.16 in 10.0 mi WSW 5.8 mph - N/A   Overcast
8:37 PM 59.0 °F 53.6 °F 82% 30.16 in 10.0 mi WSW 5.8 mph - N/A   Overcast
8:56 PM 59.0 °F 53.6 °F 82% 30.16 in 10.0 mi WSW 6.9 mph - N/A   Overcast
9:15 PM 59.0 °F 53.6 °F 82% 30.15 in 10.0 mi WSW 9.2 mph - N/A   Overcast
9:16 PM 59.0 °F 53.6 °F 82% 30.15 in 10.0 mi WSW 9.2 mph - N/A   Overcast
9:35 PM 59.0 °F 53.6 °F 82% 30.14 in 10.0 mi WSW 8.1 mph - N/A   Overcast
9:58 PM 59.0 °F 53.6 °F 82% 30.15 in 10.0 mi WSW 5.8 mph - N/A   Overcast
10:17 PM 57.2 °F 53.6 °F 88% 30.15 in 10.0 mi WSW 8.1 mph - N/A   Overcast
10:36 PM 57.2 °F 53.6 °F 88% 30.15 in 10.0 mi WSW 8.1 mph - N/A   Overcast
10:55 PM 57.2 °F 53.6 °F 88% 30.14 in 10.0 mi WSW 8.1 mph - N/A   Overcast
11:15 PM 57.2 °F 53.6 °F 88% 30.15 in 10.0 mi WSW 6.9 mph - N/A   Overcast
11:19 PM 57.2 °F 53.6 °F 88% 30.15 in 10.0 mi WSW 6.9 mph - N/A   Overcast
11:38 PM 57.2 °F 53.6 °F 88% 30.16 in 10.0 mi WSW 5.8 mph - N/A   Overcast
11:55 PM 57.2 °F 53.6 °F 88% 30.16 in 10.0 mi WSW 4.6 mph - N/A   Overcast